Location: ??????
(38.3184°N, 23.6932°E)
Time: 01:08:04
(UTC+00:00)

Feng Yun 1-1 Rocket - Pass Details

Date: 16 October 2021
Orbit: 830 x 933 km, 99.2° (Epoch: 04 December)

Event Time Altitude Azimuth Distance (km) Brightness Sun altitude
Rises 17:00:21 0° 161° (SSE) 3,376 7.1 -15.4°
Reaches altitude 10° 17:02:41 10° 161° (SSE) 2,454 6.4 -15.8°
Maximum altitude 17:08:07 81° 74° (ENE) 871 4.1 -16.9°
Drops below altitude 10° 17:13:44 10° 348° (NNW) 2,531 6.8 -18.0°
Sets 17:16:10 0° 348° (NNW) 3,489 7.6 -18.5°
